Location: Rowland
(34.5359°N, 79.2929°W)
Time: 16:41:12
(UTC+00:00)

Vanguard 2 Rocket - All Passes

Search period start: 26 September 2022 00:00
Search period end: 06 October 2022 00:00
Orbit: 553 x 3323 km, 32.9° (Epoch: 25 September)

Date Brightness Start Highest point End Pass type
(mag) Time Alt. Az. Time Alt. Az. Time Alt. Az.
26 Sep - 02:05:50 10° SSE 02:10:37 12° SSE 02:14:45 10° SE visible
26 Sep - 04:15:22 10° SSW 04:26:04 32° SSE 04:32:46 10° E night (unlit)
26 Sep - 06:31:07 10° WSW 06:40:09 61° SSE 06:45:25 10° E night (unlit)
26 Sep - 08:47:18 10° W 08:53:15 74° S 08:57:22 10° E visible
26 Sep - 11:01:57 10° W 11:05:37 29° SSW 11:09:06 10° SE daylight
27 Sep - 03:14:04 10° SSW 03:25:09 27° SSE 03:32:35 10° ESE visible
27 Sep - 05:29:07 10° SW 05:39:53 53° SSE 05:46:01 10° E night (unlit)
27 Sep - 07:45:56 10° W 07:53:24 77° S 07:58:01 10° E visible
27 Sep - 10:01:26 10° W 10:06:04 45° SSW 10:09:50 10° SE visible
28 Sep - 02:13:19 10° SSW 02:23:57 21° SSE 02:31:42 10° ESE visible
28 Sep - 04:27:00 10° SW 04:39:18 45° SSE 04:46:27 10° E visible
28 Sep - 06:44:03 10° WSW 06:53:22 73° S 06:58:43 10° E night (unlit)
28 Sep - 09:00:32 10° W 09:06:27 63° SSW 09:10:33 10° ESE visible
28 Sep - 11:15:50 10° WSW 11:18:35 17° SSW 11:21:13 10° SSE daylight
29 Sep - 01:13:42 10° S 01:22:28 16° SSE 01:29:35 10° ESE visible
29 Sep - 03:25:00 10° SW 03:38:24 38° SSE 03:46:37 10° E visible
29 Sep - 05:41:45 10° WSW 05:53:05 67° SSE 05:59:21 10° E night (unlit)
29 Sep - 07:59:07 10° W 08:06:38 76° S 08:11:15 10° E visible
29 Sep - 10:14:51 10° W 10:19:06 29° SSW 10:22:34 10° SE visible
30 Sep - 00:17:37 10° SSE 00:20:45 11° SE 00:23:43 10° SE visible
30 Sep - 02:23:21 10° SSW 02:37:10 32° SSE 02:46:20 10° E visible
30 Sep - 04:39:13 10° WSW 04:52:29 59° SSE 04:59:53 10° E visible
30 Sep - 06:57:09 10° W 07:06:36 79° S 07:11:58 10° E night (unlit)
30 Sep - 09:13:46 10° W 09:19:33 47° SSW 09:23:34 10° SE visible
01 Oct - 01:22:21 10° SSW 01:35:39 26° SSE 01:45:21 10° E visible
01 Oct - 03:36:42 10° SW 03:51:34 51° SSE 04:00:12 10° E visible
01 Oct - 05:54:41 10° WSW 06:06:17 77° S 06:12:38 10° E night (unlit)
01 Oct - 08:12:18 10° W 08:19:48 66° SSW 08:24:26 10° ESE visible
01 Oct - 10:28:42 10° WSW 10:31:55 18° SSW 10:34:41 10° S visible
02 Oct - 00:22:27 10° S 00:33:55 19° SE 00:43:14 10° ESE visible
02 Oct - 02:34:25 10° SW 02:50:17 44° SSE 03:00:11 10° E visible
02 Oct - 04:51:52 10° WSW 05:05:40 72° SSE 05:13:11 10° E visible
02 Oct - 07:10:18 10° W 07:19:48 77° S 07:25:13 10° ESE visible
02 Oct - 09:27:10 10° W 09:32:28 32° SSW 09:36:18 10° SE visible
02 Oct - 23:24:51 10° SSE 23:32:04 13° SE 23:38:38 10° ESE visible
03 Oct - 01:32:40 10° SSW 01:48:42 36° SSE 01:59:42 10° E visible
03 Oct - 03:48:57 10° WSW 04:04:42 64° SSE 04:13:34 10° E visible
03 Oct - 06:07:46 10° W 06:19:30 81° S 06:25:53 10° E night (unlit)
03 Oct - 08:25:31 10° W 08:32:52 50° SSW 08:37:28 10° SE visible
04 Oct - 00:31:40 10° SSW 00:46:53 29° SSE 00:58:30 10° E visible
04 Oct - 02:46:12 10° SW 03:03:21 56° SSE 03:13:40 10° E visible
04 Oct - 05:04:47 10° WSW 05:18:51 80° S 05:26:26 10° E visible
04 Oct - 07:23:28 10° W 07:32:57 68° SSW 07:38:22 10° ESE visible
04 Oct - 09:40:55 10° W 09:45:11 20° SW 09:48:29 10° S visible
04 Oct - 23:31:46 10° S 23:44:58 22° SE 23:56:09 10° E visible
05 Oct - 01:43:53 10° SW 02:01:40 48° SSE 02:13:25 10° E visible
05 Oct - 04:01:37 10° WSW 04:17:49 75° S 04:26:50 10° E visible
05 Oct - 06:20:55 10° W 06:32:42 79° S 06:39:07 10° ESE night (unlit)
05 Oct - 08:38:51 10° W 08:45:43 35° SSW 08:50:12 10° SE visible
05 Oct - 22:33:56 10° SSE 22:43:04 15° SE 22:51:35 10° ESE daylight
